START_TIME,STEP,MOV.,M29,t_acc.,H22,t_acc.,H26,t_acc.,H30,t_acc.
1989-08-24T03:00:32.830 ,4,0,0.,24.0,0.,24.0,0.,24.0,0.,24.0
1989-08-24T03:00:56.830 ,3,1,0.,24.0,0.,24.0,0.,24.0,0.,24.0
1989-08-24T03:01:20.830 ,3,0,0.,24.0,0.,24.0,0.,24.0,0.,24.0
1989-08-24T03:01:44.830 ,2,1,0.,24.0,0.,24.0,0.,24.0,0.,24.0
1989-08-24T03:02:08.830 ,2,0,0.,24.0,0.,24.0,0.,24.0,0.,24.0
1989-08-24T03:02:32.830 ,1,1,0.,24.0,0.,24.0,0.,24.0,0.,24.0
1989-08-24T03:02:56.830 ,1,0,0.,24.0,0.,24.0,0.,24.0,0.,24.0
1989-08-24T03:03:20.830 ,0,1,0.,24.0,0.,24.0,0.,24.0,0.,24.0
1989-08-24T03:03:44.830 ,0,0,0.,24.0,0.,24.0,0.,24.0,0.,24.0
1989-08-24T03:04:08.830 ,0,1,0.,24.0,0.,24.0,0.,24.0,0.,24.0
1989-08-24T03:04:32.830 ,0,0,0.,24.0,0.,24.0,0.,24.0,0.,24.0
1989-08-24T03:04:56.830 ,1,1,0.,24.0,0.,24.0,0.,24.0,0.,24.0
1989-08-24T03:05:20.830 ,1,0,0.,24.0,0.,24.0,0.,24.0,0.,24.0
1989-08-24T03:05:44.830 ,2,1,0.,24.0,0.,24.0,0.,24.0,0.,24.0
1989-08-24T03:06:08.830 ,2,0,0.,24.0,0.,24.0,0.,24.0,0.,24.0
1989-08-24T03:06:32.830 ,3,1,0.,24.0,0.,24.0,0.,24.0,0.,24.0
1989-08-24T03:06:56.830 ,3,0,0.,24.0,0.,24.0,0.,24.0,0.,24.0
1989-08-24T03:07:20.830 ,4,1,0.,24.0,0.,24.0,0.,24.0,0.,24.0
1989-08-24T03:07:44.830 ,4,0,0.,24.0,0.,24.0,0.,24.0,0.,24.0
1989-08-24T03:08:08.830 ,5,1,0.,24.0,0.,24.0,0.,24.0,0.,24.0
1989-08-24T03:08:32.830 ,5,0,0.,24.0,0.,24.0,0.,24.0,0.,24.0
1989-08-24T03:08:56.830 ,6,1,0.,24.0,0.,24.0,0.,24.0,0.,24.0
1989-08-24T03:09:20.830 ,6,0,0.,24.0,0.,24.0,0.,24.0,0.,24.0
1989-08-24T03:09:44.830 ,7,1,0.,24.0,0.,24.0,0.,24.0,0.,24.0
1989-08-24T03:10:08.830 ,7,0,0.,24.0,0.,24.0,0.,24.0,0.,24.0
1989-08-24T03:10:32.830 ,7,1,0.,24.0,0.,24.0,0.,24.0,0.,24.0
1989-08-24T03:10:56.830 ,7,0,0.,24.0,0.,24.0,0.,24.0,0.,24.0
1989-08-24T03:11:20.830 ,6,1,0.,24.0,0.,24.0,0.,24.0,0.,24.0
1989-08-24T03:11:44.830 ,6,0,0.,24.0,0.,24.0,0.,24.0,0.,24.0
1989-08-24T03:12:08.830 ,5,1,0.,24.0,0.,24.0,0.,24.0,0.,24.0
1989-08-24T03:12:32.830 ,5,0,0.,24.0,0.,24.0,0.,24.0,0.,24.0
1989-08-24T03:12:56.830 ,4,1,0.,24.0,0.,24.0,0.,24.0,0.,24.0
1989-08-24T03:13:20.830 ,4,0,0.,24.0,0.,24.0,0.,24.0,0.,24.0
1989-08-24T03:13:44.830 ,3,1,0.,24.0,0.,24.0,0.,24.0,0.,24.0
1989-08-24T03:14:08.830 ,3,0,0.,24.0,0.,24.0,0.,24.0,0.,24.0
1989-08-24T03:14:32.830 ,2,1,0.,24.0,0.,24.0,0.,24.0,0.,24.0
1989-08-24T03:14:56.830 ,2,0,0.,24.0,0.,24.0,0.,24.0,0.,24.0
1989-08-24T03:15:20.830 ,1,1,0.,24.0,0.,24.0,0.,24.0,0.,24.0
1989-08-24T03:15:44.830 ,1,0,0.,24.0,0.,24.0,0.,24.0,0.,24.0
1989-08-24T03:16:08.830 ,0,1,0.,24.0,0.,24.0,0.,24.0,0.,24.0
1989-08-24T03:16:32.830 ,0,0,0.,24.0,0.,24.0,0.,24.0,0.,24.0
1989-08-24T03:16:56.830 ,0,1,0.,24.0,0.,24.0,0.,24.0,0.,24.0
1989-08-24T03:17:20.830 ,0,0,0.,24.0,0.,24.0,0.,24.0,0.,24.0
1989-08-24T03:17:44.830 ,1,1,0.,24.0,0.,24.0,0.,24.0,0.,24.0
1989-08-24T03:18:08.830 ,1,0,0.,24.0,0.,24.0,0.,24.0,0.,24.0
1989-08-24T03:18:32.830 ,2,1,0.,24.0,0.,24.0,0.,24.0,0.,24.0
1989-08-24T03:18:56.830 ,2,0,0.,24.0,0.,24.0,0.,24.0,0.,24.0
1989-08-24T03:19:20.830 ,3,1,0.,24.0,0.,24.0,0.,24.0,0.,24.0
1989-08-24T03:19:44.830 ,3,0,0.,24.0,0.,24.0,0.,24.0,0.,24.0
1989-08-24T03:20:08.830 ,4,1,0.,24.0,0.,24.0,0.,24.0,0.,24.0
1989-08-24T03:20:32.830 ,4,0,0.,24.0,0.,24.0,0.,24.0,0.,24.0
1989-08-24T03:20:56.830 ,5,1,0.,24.0,0.,24.0,0.,24.0,0.,24.0
1989-08-24T03:21:20.830 ,5,0,0.,24.0,0.,24.0,0.,24.0,0.,24.0
1989-08-24T03:21:44.830 ,6,1,0.,24.0,0.,24.0,0.,24.0,0.,24.0
1989-08-24T03:22:08.830 ,6,0,0.,24.0,0.,24.0,0.,24.0,0.,24.0
1989-08-24T03:22:32.830 ,7,1,0.,24.0,0.,24.0,0.,24.0,0.,24.0
1989-08-24T03:22:56.830 ,7,0,0.,24.0,0.,24.0,0.,24.0,0.,24.0
1989-08-24T03:23:20.830 ,7,1,0.,24.0,0.,24.0,0.,24.0,0.,24.0
1989-08-24T03:23:44.830 ,7,0,0.,24.0,0.,24.0,0.,24.0,0.,24.0
1989-08-24T03:24:08.830 ,6,1,0.,24.0,0.,24.0,0.,24.0,0.,24.0
1989-08-24T03:24:32.830 ,6,0,0.,24.0,0.,24.0,0.,24.0,0.,24.0
1989-08-24T03:24:56.830 ,5,1,0.,24.0,0.,24.0,0.,24.0,0.,24.0
1989-08-24T03:25:20.830 ,5,0,0.,24.0,0.,24.0,0.,24.0,0.,24.0
1989-08-24T03:25:44.830 ,4,1,0.,24.0,0.,24.0,0.,24.0,0.,24.0
1989-08-24T03:26:08.830 ,4,0,0.,24.0,0.,24.0,0.,24.0,0.,24.0
1989-08-24T03:26:32.830 ,3,1,0.,24.0,0.,24.0,0.,24.0,0.,24.0
1989-08-24T03:26:56.830 ,3,0,0.,24.0,0.,24.0,0.,24.0,0.,24.0
1989-08-24T03:27:20.830 ,2,1,0.,24.0,0.,24.0,0.,24.0,0.,24.0
1989-08-24T03:27:44.830 ,2,0,0.,24.0,0.,24.0,0.,24.0,0.,24.0
1989-08-24T03:28:08.830 ,1,1,0.,24.0,0.,24.0,0.,24.0,0.,24.0
1989-08-24T03:28:32.830 ,1,0,0.,24.0,0.,24.0,0.,24.0,0.,24.0
1989-08-24T03:28:56.830 ,0,1,0.,24.0,0.,24.0,0.,24.0,0.,24.0
1989-08-24T03:29:20.830 ,0,0,0.,24.0,0.,24.0,0.,24.0,0.,24.0
1989-08-24T03:29:44.830 ,0,1,0.,24.0,0.,24.0,0.,24.0,0.,24.0
1989-08-24T03:30:08.830 ,0,0,0.,24.0,0.,24.0,0.,24.0,0.,24.0
1989-08-24T03:30:32.830 ,1,1,0.,24.0,0.,24.0,0.,24.0,0.,24.0
1989-08-24T03:30:56.830 ,1,0,0.,24.0,0.,24.0,0.,24.0,0.,24.0
1989-08-24T03:31:20.830 ,2,1,0.,24.0,0.,24.0,0.,24.0,0.,24.0
1989-08-24T03:31:44.830 ,2,0,0.,24.0,0.,24.0,0.,24.0,0.,24.0
1989-08-24T03:32:08.830 ,3,1,0.,24.0,0.,24.0,0.,24.0,0.,24.0
1989-08-24T03:32:32.830 ,3,0,0.,24.0,0.,24.0,0.,24.0,0.,24.0
1989-08-24T03:32:56.830 ,4,1,0.,24.0,0.,24.0,0.,24.0,0.,24.0
1989-08-24T03:33:20.830 ,4,0,0.,24.0,0.,24.0,0.,24.0,0.,24.0
1989-08-24T03:33:44.830 ,5,1,0.,24.0,0.,24.0,0.,24.0,0.,24.0
1989-08-24T03:34:08.820 ,5,0,0.,24.0,0.,24.0,0.,24.0,0.,24.0
1989-08-24T03:34:32.820 ,6,1,0.,24.0,0.,24.0,0.,24.0,0.,24.0
1989-08-24T03:34:56.820 ,6,0,0.,24.0,0.,24.0,0.,24.0,0.,24.0
1989-08-24T03:35:20.820 ,7,1,0.,24.0,0.,24.0,0.,24.0,0.,24.0
1989-08-24T03:35:44.820 ,7,0,0.,24.0,0.,24.0,0.,24.0,0.,24.0
1989-08-24T03:36:08.820 ,7,1,0.,24.0,0.,24.0,0.,24.0,0.,24.0
1989-08-24T03:36:32.820 ,7,0,0.,24.0,0.,24.0,0.,24.0,0.,24.0
1989-08-24T03:36:56.820 ,6,1,0.,24.0,0.,24.0,0.,24.0,0.,24.0
1989-08-24T03:37:20.820 ,6,0,0.,24.0,0.,24.0,0.,24.0,0.,24.0
1989-08-24T03:37:44.820 ,5,1,0.,24.0,0.,24.0,0.,24.0,0.,24.0
1989-08-24T03:38:08.820 ,5,0,0.,24.0,0.,24.0,0.,24.0,0.,24.0
1989-08-24T03:38:32.820 ,4,1,0.,24.0,0.,24.0,0.,24.0,0.,24.0
1989-08-24T03:38:56.820 ,4,0,0.,24.0,0.,24.0,0.,24.0,0.,24.0
1989-08-24T03:39:20.820 ,3,1,0.,24.0,0.,24.0,0.,24.0,0.,24.0
1989-08-24T03:39:44.820 ,3,0,0.,24.0,0.,24.0,0.,24.0,0.,24.0
1989-08-24T03:40:08.820 ,2,1,0.,24.0,0.,24.0,0.,24.0,0.,24.0
1989-08-24T03:40:32.820 ,2,0,0.,24.0,0.,24.0,0.,24.0,0.,24.0
1989-08-24T03:40:56.820 ,1,1,0.,24.0,0.,24.0,0.,24.0,0.,24.0
1989-08-24T03:41:20.820 ,1,0,0.,24.0,0.,24.0,0.,24.0,0.,24.0
1989-08-24T03:41:44.820 ,0,1,0.,24.0,0.,24.0,0.,24.0,0.,24.0
1989-08-24T03:42:08.820 ,0,0,0.,24.0,0.,24.0,0.,24.0,0.,24.0
1989-08-24T03:42:32.820 ,0,1,0.,24.0,0.,24.0,0.,24.0,0.,24.0
1989-08-24T03:42:56.820 ,0,0,0.,24.0,0.,24.0,0.,24.0,0.,24.0
1989-08-24T03:43:20.820 ,1,1,0.,24.0,0.,24.0,0.,24.0,0.,24.0
1989-08-24T03:43:44.820 ,1,0,0.,24.0,0.,24.0,0.,24.0,0.,24.0
1989-08-24T03:44:08.820 ,0,0,,0,,0,,0,,0
1989-08-24T03:44:32.820 ,0,0,,0,,0,,0,,0
1989-08-24T03:44:14.220 ,0,0,,0,,0,,0,,0
1989-08-24T03:44:32.820 ,0,0,,0,,0,,0,,0
1989-08-24T03:44:14.220 ,0,0,,0,,0,,0,,0
1989-08-24T03:44:32.820 ,0,0,,0,,0,,0,,0
1989-08-24T03:44:14.820 ,2,1,0.,24.0,0.,24.0,0.,24.0,0.,24.0
1989-08-24T03:44:32.820 ,2,0,0.,24.0,0.,24.0,0.,24.0,0.,24.0
1989-08-24T03:44:56.820 ,3,1,0.,24.0,0.,24.0,0.,24.0,0.,24.0
1989-08-24T03:45:20.820 ,3,0,0.,24.0,0.,24.0,0.,24.0,0.,24.0
1989-08-24T03:45:44.820 ,4,1,0.,24.0,0.,24.0,0.,24.0,0.,24.0
1989-08-24T03:46:08.820 ,4,0,0.,24.0,0.,24.0,0.,24.0,0.,24.0
1989-08-24T03:46:32.820 ,5,1,0.,24.0,0.,24.0,0.,24.0,0.,24.0
1989-08-24T03:46:56.820 ,5,0,0.,24.0,0.,24.0,0.,24.0,0.,24.0
1989-08-24T03:47:20.820 ,6,1,0.,24.0,0.,24.0,0.,24.0,0.,24.0
1989-08-24T03:47:44.820 ,6,0,0.,24.0,0.,24.0,0.,24.0,0.,24.0
1989-08-24T03:48:08.820 ,7,1,0.,24.0,0.,24.0,0.,24.0,0.,24.0
1989-08-24T03:48:32.820 ,7,0,0.,24.0,0.,24.0,0.,24.0,0.,24.0
1989-08-24T03:48:56.820 ,7,1,0.,24.0,0.,24.0,0.,24.0,0.,24.0
1989-08-24T03:49:20.820 ,7,0,0.,24.0,0.,24.0,0.,24.0,0.,24.0
1989-08-24T03:49:44.820 ,6,1,0.,24.0,0.,24.0,0.,24.0,0.,24.0
1989-08-24T03:50:08.820 ,6,0,0.,24.0,0.,24.0,0.,24.0,0.,24.0
1989-08-24T03:50:32.820 ,5,1,0.,24.0,0.,24.0,0.,24.0,0.,24.0
1989-08-24T03:50:56.820 ,5,0,0.,24.0,0.,24.0,0.,24.0,0.,24.0
1989-08-24T03:51:20.820 ,4,1,0.,24.0,0.,24.0,0.,24.0,0.,24.0
1989-08-24T03:51:44.820 ,4,0,0.,24.0,0.,24.0,0.,24.0,0.,24.0
1989-08-24T03:52:08.820 ,3,1,0.,24.0,0.,24.0,0.,24.0,0.,24.0
1989-08-24T03:52:32.820 ,3,0,0.,24.0,0.,24.0,0.,24.0,0.,24.0
1989-08-24T03:52:56.820 ,2,1,0.,24.0,0.,24.0,0.,24.0,0.,24.0
1989-08-24T03:53:20.820 ,2,0,0.,24.0,0.,24.0,0.,24.0,0.,24.0
1989-08-24T03:53:44.820 ,1,1,0.,24.0,0.,24.0,0.,24.0,0.,24.0
1989-08-24T03:54:08.820 ,1,0,0.,24.0,0.,24.0,0.,24.0,0.,24.0
1989-08-24T03:54:32.820 ,0,1,0.,24.0,0.,24.0,0.,24.0,0.,24.0
1989-08-24T03:54:56.820 ,0,0,0.,24.0,0.,24.0,0.,24.0,0.,24.0
1989-08-24T03:55:20.820 ,0,1,0.,24.0,0.,24.0,0.,24.0,0.,24.0
1989-08-24T03:55:44.820 ,0,0,0.,24.0,0.,24.0,0.,24.0,0.,24.0
1989-08-24T03:56:08.820 ,1,1,0.,24.0,0.,24.0,0.,24.0,0.,24.0
1989-08-24T03:56:32.820 ,1,0,0.,24.0,0.,24.0,0.,24.0,0.,24.0
1989-08-24T03:56:56.820 ,2,1,0.,24.0,0.,24.0,0.,24.0,0.,24.0
1989-08-24T03:57:20.820 ,2,0,0.,24.0,0.,24.0,0.,24.0,0.,24.0
1989-08-24T03:57:44.820 ,3,1,0.,24.0,0.,24.0,0.,24.0,0.,24.0
1989-08-24T03:58:08.820 ,3,0,0.,24.0,0.,24.0,0.,24.0,0.,24.0
1989-08-24T03:58:32.820 ,4,1,0.,24.0,0.,24.0,0.,24.0,0.,24.0
1989-08-24T03:58:56.820 ,4,0,0.,24.0,0.,24.0,0.,24.0,0.,24.0
1989-08-24T03:59:20.820 ,5,1,0.,24.0,0.,24.0,0.,24.0,0.,24.0
1989-08-24T03:59:44.820 ,5,0,0.,24.0,0.,24.0,0.,24.0,0.,24.0
1989-08-24T04:00:08.820 ,6,1,0.,24.0,0.,24.0,0.,24.0,0.,24.0
1989-08-24T04:00:32.820 ,6,0,0.,24.0,0.,24.0,0.,24.0,0.,24.0
1989-08-24T04:00:56.820 ,7,1,0.,24.0,0.,24.0,0.,24.0,0.,24.0
1989-08-24T04:01:20.820 ,7,0,0.,24.0,0.,24.0,0.,24.0,0.,24.0
1989-08-24T04:01:44.820 ,7,1,0.,24.0,0.,24.0,0.,24.0,0.,24.0
1989-08-24T04:02:08.820 ,7,0,0.,24.0,0.,24.0,0.,24.0,0.,24.0
1989-08-24T04:02:32.820 ,6,1,0.,24.0,0.,24.0,0.,24.0,0.,24.0
1989-08-24T04:02:56.820 ,6,0,0.,24.0,0.,24.0,0.,24.0,0.,24.0
1989-08-24T04:03:20.820 ,5,1,0.,24.0,0.,24.0,0.,24.0,0.,24.0
1989-08-24T04:03:44.820 ,5,0,0.,24.0,0.,24.0,0.,24.0,0.,24.0
1989-08-24T04:04:08.820 ,4,1,0.,24.0,0.,24.0,0.,24.0,0.,24.0
1989-08-24T04:04:32.820 ,4,0,0.,24.0,0.,24.0,0.,24.0,0.,24.0
1989-08-24T04:04:56.820 ,3,1,0.,24.0,0.,24.0,0.,24.0,0.,24.0
1989-08-24T04:05:20.820 ,3,0,0.,24.0,0.,24.0,0.,24.0,0.,24.0
1989-08-24T04:05:44.820 ,2,1,0.,24.0,0.,24.0,0.,24.0,0.,24.0
1989-08-24T04:06:08.820 ,2,0,0.,24.0,0.,24.0,0.,24.0,0.,24.0
1989-08-24T04:06:32.820 ,1,1,0.,24.0,0.,24.0,0.,24.0,0.,24.0
1989-08-24T04:06:56.820 ,1,0,0.,24.0,0.,24.0,0.,24.0,0.,24.0
1989-08-24T04:07:20.820 ,0,1,0.,24.0,0.,24.0,0.,24.0,0.,24.0
1989-08-24T04:07:44.820 ,0,0,0.,24.0,0.,24.0,0.,24.0,0.,24.0
1989-08-24T04:08:08.820 ,0,1,0.,24.0,0.,24.0,0.,24.0,0.,24.0
1989-08-24T04:08:32.820 ,0,0,0.,24.0,0.,24.0,0.,24.0,0.,24.0
1989-08-24T04:08:56.820 ,1,1,0.,24.0,0.,24.0,0.,24.0,0.,24.0
1989-08-24T04:09:20.820 ,1,0,0.,24.0,0.,24.0,0.,24.0,0.,24.0
1989-08-24T04:09:44.820 ,2,1,0.,24.0,0.,24.0,0.,24.0,0.,24.0
1989-08-24T04:10:08.820 ,2,0,0.,24.0,0.,24.0,0.,24.0,0.,24.0
1989-08-24T04:10:32.820 ,3,1,0.,24.0,0.,24.0,0.,24.0,0.,24.0
1989-08-24T04:10:56.820 ,3,0,0.,24.0,0.,24.0,0.,24.0,0.,24.0
1989-08-24T04:11:20.820 ,4,1,0.,24.0,0.,24.0,0.,24.0,0.,24.0
1989-08-24T04:11:44.820 ,4,0,0.,24.0,0.,24.0,0.,24.0,0.,24.0
1989-08-24T04:12:08.820 ,5,1,0.,24.0,0.,24.0,0.,24.0,0.,24.0
1989-08-24T04:12:32.820 ,5,0,0.,24.0,0.,24.0,0.,24.0,0.,24.0
1989-08-24T04:12:56.820 ,6,1,0.,24.0,0.,24.0,0.,24.0,0.,24.0
1989-08-24T04:13:20.820 ,6,0,0.,24.0,0.,24.0,0.,24.0,0.,24.0
1989-08-24T04:13:44.820 ,7,1,0.,24.0,0.,24.0,0.,24.0,0.,24.0
1989-08-24T04:14:08.820 ,7,0,0.,24.0,0.,24.0,0.,24.0,0.,24.0
1989-08-24T04:14:32.820 ,7,1,0.,24.0,0.,24.0,0.,24.0,0.,24.0
1989-08-24T04:14:56.820 ,7,0,0.,24.0,0.,24.0,0.,24.0,0.,24.0
1989-08-24T04:15:20.820 ,6,1,0.,24.0,0.,24.0,0.,24.0,0.,24.0
1989-08-24T04:15:44.820 ,6,0,0.,24.0,0.,24.0,0.,24.0,0.,24.0
1989-08-24T04:16:08.820 ,5,1,0.,24.0,0.,24.0,0.,24.0,0.,24.0
1989-08-24T04:16:32.820 ,5,0,0.,24.0,0.,24.0,0.,24.0,0.,24.0
1989-08-24T04:16:56.820 ,4,1,0.,24.0,0.,24.0,0.,24.0,0.,24.0
1989-08-24T04:17:20.820 ,4,0,0.,24.0,0.,24.0,0.,24.0,0.,24.0
1989-08-24T04:17:44.820 ,3,1,0.,24.0,0.,24.0,0.,24.0,0.,24.0
1989-08-24T04:18:08.820 ,3,0,0.,24.0,0.,24.0,0.,24.0,0.,24.0
1989-08-24T04:18:32.820 ,2,1,0.,24.0,0.,24.0,0.,24.0,0.,24.0
1989-08-24T04:18:56.820 ,2,0,0.,24.0,0.,24.0,0.,24.0,0.,24.0
1989-08-24T04:19:20.820 ,1,1,0.,24.0,0.,24.0,0.,24.0,0.,24.0
1989-08-24T04:19:44.820 ,1,0,0.,24.0,0.,24.0,0.,24.0,0.,24.0
1989-08-24T04:20:08.820 ,0,1,0.,24.0,0.,24.0,0.,24.0,0.,24.0
1989-08-24T04:20:32.820 ,0,0,0.,24.0,0.,24.0,0.,24.0,0.,24.0
1989-08-24T04:20:56.820 ,0,1,0.,24.0,0.,24.0,0.,24.0,0.,24.0
1989-08-24T04:21:20.820 ,0,0,0.,24.0,0.,24.0,0.,24.0,0.,24.0
1989-08-24T04:21:44.820 ,1,1,0.,24.0,0.,24.0,0.,24.0,0.,24.0
1989-08-24T04:22:08.820 ,1,0,0.,24.0,0.,24.0,0.,24.0,0.,24.0
1989-08-24T04:22:32.820 ,2,1,0.,24.0,0.,24.0,0.,24.0,0.,24.0
1989-08-24T04:22:56.820 ,2,0,0.,24.0,0.,24.0,0.,24.0,0.,24.0
1989-08-24T04:23:20.820 ,3,1,0.,24.0,0.,24.0,0.,24.0,0.,24.0
1989-08-24T04:23:44.820 ,3,0,0.,24.0,0.,24.0,0.,24.0,0.,24.0
1989-08-24T04:24:08.820 ,4,1,0.,24.0,0.,24.0,0.,24.0,0.,24.0
1989-08-24T04:24:32.820 ,4,0,0.,24.0,0.,24.0,0.,24.0,0.,24.0
1989-08-24T04:24:56.820 ,5,1,0.,24.0,0.,24.0,0.,24.0,0.,24.0
1989-08-24T04:25:20.820 ,5,0,0.,24.0,0.,24.0,0.,24.0,0.,24.0
1989-08-24T04:25:44.820 ,6,1,0.,24.0,0.,24.0,0.,24.0,0.,24.0
1989-08-24T04:26:08.820 ,6,0,0.,24.0,0.,24.0,0.,24.0,0.,24.0
1989-08-24T04:26:32.820 ,7,1,0.,24.0,0.,24.0,0.,24.0,0.,24.0
1989-08-24T04:26:56.820 ,7,0,0.,24.0,0.,24.0,0.,24.0,0.,24.0
1989-08-24T04:27:20.820 ,7,1,0.,24.0,0.,24.0,0.,24.0,0.,24.0
1989-08-24T04:27:44.820 ,7,0,0.,24.0,0.,24.0,0.,24.0,0.,24.0
1989-08-24T04:28:08.820 ,6,1,0.,24.0,0.,24.0,0.,24.0,0.,24.0
1989-08-24T04:28:32.820 ,6,0,0.,24.0,0.,24.0,0.,24.0,0.,24.0
1989-08-24T04:28:56.820 ,5,1,0.,24.0,0.,24.0,0.,24.0,0.,24.0
1989-08-24T04:29:20.820 ,5,0,0.,24.0,0.,24.0,0.,24.0,0.,24.0
1989-08-24T04:29:44.820 ,4,1,0.,24.0,0.,24.0,0.,24.0,0.,24.0
1989-08-24T04:30:08.820 ,4,0,0.,24.0,0.,24.0,0.,24.0,0.,24.0
1989-08-24T04:30:32.820 ,3,1,0.,24.0,0.,24.0,0.,24.0,0.,24.0
1989-08-24T04:30:56.820 ,3,0,0.,24.0,0.,24.0,0.,24.0,0.,24.0
1989-08-24T04:31:20.820 ,2,1,0.,24.0,0.,24.0,0.,24.0,0.,24.0
1989-08-24T04:31:44.820 ,2,0,0.,24.0,0.,24.0,0.,24.0,0.,24.0
1989-08-24T04:32:08.820 ,1,1,0.,24.0,0.,24.0,0.,24.0,0.,24.0
1989-08-24T04:32:32.820 ,1,0,0.,24.0,0.,24.0,0.,24.0,0.,24.0
1989-08-24T04:32:56.820 ,0,1,0.,24.0,0.,24.0,0.,24.0,0.,24.0
1989-08-24T04:33:20.820 ,0,0,0.,24.0,0.,24.0,0.,24.0,0.,24.0
1989-08-24T04:33:44.820 ,0,1,0.,24.0,0.,24.0,0.,24.0,0.,24.0
1989-08-24T04:34:08.820 ,0,0,0.,24.0,0.,24.0,0.,24.0,0.,24.0
1989-08-24T04:34:32.820 ,1,1,0.,24.0,0.,24.0,0.,24.0,0.,24.0
1989-08-24T04:34:56.820 ,1,0,0.,24.0,0.,24.0,0.,24.0,0.,24.0
1989-08-24T04:35:20.820 ,2,1,0.,24.0,0.,24.0,0.,24.0,0.,24.0
1989-08-24T04:35:44.820 ,2,0,0.,24.0,0.,24.0,0.,24.0,0.,24.0
1989-08-24T04:36:08.820 ,3,1,0.,24.0,0.,24.0,0.,24.0,0.,24.0
1989-08-24T04:36:32.820 ,3,0,0.,24.0,0.,24.0,0.,24.0,0.,24.0
1989-08-24T04:36:56.820 ,4,1,0.,24.0,0.,24.0,0.,24.0,0.,24.0
1989-08-24T04:37:20.820 ,4,0,0.,24.0,0.,24.0,0.,24.0,0.,24.0
1989-08-24T04:37:44.820 ,5,1,0.,24.0,0.,24.0,0.,24.0,0.,24.0
1989-08-24T04:38:08.820 ,5,0,0.,24.0,0.,24.0,0.,24.0,0.,24.0
1989-08-24T04:38:32.820 ,6,1,0.,24.0,0.,24.0,0.,24.0,0.,24.0
1989-08-24T04:38:56.820 ,6,0,0.,24.0,0.,24.0,0.,24.0,0.,24.0
1989-08-24T04:39:20.820 ,7,1,0.,24.0,0.,24.0,0.,24.0,0.,24.0
1989-08-24T04:39:44.820 ,7,0,0.,24.0,0.,24.0,0.,24.0,0.,24.0
1989-08-24T04:40:08.820 ,7,1,0.,24.0,0.,24.0,0.,24.0,0.,24.0
1989-08-24T04:40:32.820 ,7,0,0.,24.0,0.,24.0,0.,24.0,0.,24.0
1989-08-24T04:40:56.820 ,6,1,0.,24.0,0.,24.0,0.,24.0,0.,24.0
1989-08-24T04:41:20.820 ,6,0,0.,24.0,0.,24.0,0.,24.0,0.,24.0
1989-08-24T04:41:44.820 ,5,1,0.,24.0,0.,24.0,0.,24.0,0.,24.0
1989-08-24T04:42:08.820 ,5,0,0.,24.0,0.,24.0,0.,24.0,0.,24.0
1989-08-24T04:42:32.820 ,4,1,0.,24.0,0.,24.0,0.,24.0,0.,24.0
1989-08-24T04:42:56.820 ,4,0,0.,24.0,0.,24.0,0.,24.0,0.,24.0
1989-08-24T04:43:20.820 ,3,1,0.,24.0,0.,24.0,0.,24.0,0.,24.0
1989-08-24T04:43:44.820 ,3,0,0.,24.0,0.,24.0,0.,24.0,0.,24.0
1989-08-24T04:44:08.820 ,2,1,0.,24.0,0.,24.0,0.,24.0,0.,24.0
1989-08-24T04:44:32.820 ,2,0,0.,24.0,0.,24.0,0.,24.0,0.,24.0
1989-08-24T04:44:56.820 ,1,1,0.,24.0,0.,24.0,0.,24.0,0.,24.0
1989-08-24T04:45:20.820 ,1,0,0.,24.0,0.,24.0,0.,24.0,0.,24.0
1989-08-24T04:45:44.820 ,0,1,0.,24.0,0.,24.0,0.,24.0,0.,24.0
1989-08-24T04:46:08.820 ,0,0,0.,24.0,0.,24.0,0.,24.0,0.,24.0
1989-08-24T04:46:32.820 ,0,1,0.,24.0,0.,24.0,0.,24.0,0.,24.0
1989-08-24T04:46:56.820 ,0,0,0.,24.0,0.,24.0,0.,24.0,0.,24.0
1989-08-24T04:47:20.820 ,1,1,0.,24.0,0.,24.0,0.,24.0,0.,24.0
1989-08-24T04:47:44.820 ,1,0,0.,24.0,0.,24.0,0.,24.0,0.,24.0
1989-08-24T04:48:08.820 ,2,1,0.,24.0,0.,24.0,0.,24.0,0.,24.0
1989-08-24T04:48:32.820 ,2,0,0.,24.0,0.,24.0,0.,24.0,0.,24.0
1989-08-24T04:48:56.820 ,3,1,0.,24.0,0.,24.0,0.,24.0,0.,24.0
1989-08-24T04:49:20.820 ,3,0,0.,24.0,0.,24.0,0.,24.0,0.,24.0
1989-08-24T04:49:44.820 ,4,1,0.,24.0,0.,24.0,0.,24.0,0.,24.0
1989-08-24T04:50:08.820 ,4,0,0.,24.0,0.,24.0,0.,24.0,0.,24.0
1989-08-24T04:50:32.820 ,5,1,0.,24.0,0.,24.0,0.,24.0,0.,24.0
1989-08-24T04:50:56.820 ,5,0,0.,24.0,0.,24.0,0.,24.0,0.,24.0
1989-08-24T04:51:20.820 ,6,1,0.,24.0,0.,24.0,0.,24.0,0.,24.0
1989-08-24T04:51:44.820 ,6,0,0.,24.0,0.,24.0,0.,24.0,0.,24.0
1989-08-24T04:52:08.820 ,7,1,0.,24.0,0.,24.0,0.,24.0,0.,24.0
1989-08-24T04:52:32.820 ,7,0,0.,24.0,0.,24.0,0.,24.0,0.,24.0
1989-08-24T04:52:56.820 ,7,1,0.,24.0,0.,24.0,0.,24.0,0.,24.0
1989-08-24T04:53:20.820 ,7,0,0.,24.0,0.,24.0,0.,24.0,0.,24.0
1989-08-24T04:53:44.820 ,6,1,0.,24.0,0.,24.0,0.,24.0,0.,24.0
1989-08-24T04:54:08.820 ,6,0,0.,24.0,0.,24.0,0.,24.0,0.,24.0
1989-08-24T04:54:32.820 ,5,1,0.,24.0,0.,24.0,0.,24.0,0.,24.0
1989-08-24T04:54:56.820 ,5,0,0.,24.0,0.,24.0,0.,24.0,0.,24.0
1989-08-24T04:55:20.820 ,4,1,0.,24.0,0.,24.0,0.,24.0,0.,24.0
1989-08-24T04:55:44.820 ,4,0,0.,24.0,0.,24.0,0.,24.0,0.,24.0
1989-08-24T04:56:08.820 ,3,1,0.,24.0,0.,24.0,0.,24.0,0.,24.0
1989-08-24T04:56:32.820 ,3,0,0.,24.0,0.,24.0,0.,24.0,0.,24.0
1989-08-24T04:56:56.820 ,2,1,0.,24.0,0.,24.0,0.,24.0,0.,24.0
1989-08-24T04:57:20.820 ,2,0,0.,24.0,0.,24.0,0.,24.0,0.,24.0
1989-08-24T04:57:44.820 ,1,1,0.,24.0,0.,24.0,0.,24.0,0.,24.0
1989-08-24T04:58:08.820 ,1,0,0.,24.0,0.,24.0,0.,24.0,0.,24.0
1989-08-24T04:58:32.820 ,0,1,0.,24.0,0.,24.0,0.,24.0,0.,24.0
1989-08-24T04:58:56.820 ,0,0,0.,24.0,0.,24.0,0.,24.0,0.,24.0
1989-08-24T04:59:20.820 ,0,1,0.,24.0,0.,24.0,0.,24.0,0.,24.0
1989-08-24T04:59:44.820 ,0,0,0.,24.0,0.,24.0,0.,24.0,0.,24.0
1989-08-24T05:00:08.820 ,1,1,0.,24.0,0.,24.0,0.,24.0,0.,24.0
1989-08-24T05:00:32.820 ,1,0,0.,24.0,0.,24.0,0.,24.0,0.,24.0
1989-08-24T05:00:56.820 ,2,1,0.,24.0,0.,24.0,0.,24.0,0.,24.0
1989-08-24T05:01:20.820 ,2,0,0.,24.0,0.,24.0,0.,24.0,0.,24.0
1989-08-24T05:01:44.820 ,3,1,0.,24.0,0.,24.0,0.,24.0,0.,24.0
1989-08-24T05:02:08.820 ,3,0,0.,24.0,0.,24.0,0.,24.0,0.,24.0
1989-08-24T05:02:32.820 ,4,1,0.,24.0,0.,24.0,0.,24.0,0.,24.0
1989-08-24T05:02:56.820 ,4,0,0.,24.0,0.,24.0,0.,24.0,0.,24.0
1989-08-24T05:03:20.820 ,5,1,0.,24.0,0.,24.0,0.,24.0,0.,24.0
1989-08-24T05:03:44.820 ,5,0,0.,24.0,0.,24.0,0.,24.0,0.,24.0
1989-08-24T05:04:08.820 ,6,1,0.,24.0,0.,24.0,0.,24.0,0.,24.0
1989-08-24T05:04:32.820 ,6,0,0.,24.0,0.,24.0,0.,24.0,0.,24.0
1989-08-24T05:04:56.820 ,7,1,0.,24.0,0.,24.0,0.,24.0,0.,24.0
1989-08-24T05:05:20.820 ,7,0,0.,24.0,0.,24.0,0.,24.0,0.,24.0
1989-08-24T05:05:44.820 ,7,1,0.,24.0,0.,24.0,0.,24.0,0.,24.0
1989-08-24T05:06:08.820 ,7,0,0.,24.0,0.,24.0,0.,24.0,0.,24.0
1989-08-24T05:06:32.820 ,6,1,0.,24.0,0.,24.0,0.,24.0,0.,24.0
1989-08-24T05:06:56.820 ,6,0,0.,24.0,0.,24.0,0.,24.0,0.,24.0
1989-08-24T05:07:20.820 ,5,1,0.,24.0,0.,24.0,0.,24.0,0.,24.0
1989-08-24T05:07:44.820 ,5,0,0.,24.0,0.,24.0,0.,24.0,0.,24.0
1989-08-24T05:08:08.820 ,4,1,0.,24.0,0.,24.0,0.,24.0,0.,24.0
1989-08-24T05:08:32.820 ,4,0,0.,24.0,0.,24.0,0.,24.0,0.,24.0
1989-08-24T05:08:56.820 ,3,1,0.,24.0,0.,24.0,0.,24.0,0.,24.0
1989-08-24T05:09:20.820 ,3,0,0.,24.0,0.,24.0,0.,24.0,0.,24.0
1989-08-24T05:09:44.820 ,2,1,0.,24.0,0.,24.0,0.,24.0,0.,24.0
1989-08-24T05:10:08.820 ,2,0,0.,24.0,0.,24.0,0.,24.0,0.,24.0
1989-08-24T05:10:32.820 ,1,1,0.,24.0,0.,24.0,0.,24.0,0.,24.0
1989-08-24T05:10:56.820 ,1,0,0.,24.0,0.,24.0,0.,24.0,0.,24.0
1989-08-24T05:11:20.820 ,0,1,0.,24.0,0.,24.0,0.,24.0,0.,24.0
1989-08-24T05:11:44.820 ,0,0,0.,24.0,0.,24.0,0.,24.0,0.,24.0
1989-08-24T05:12:08.820 ,0,1,0.,24.0,0.,24.0,0.,24.0,0.,24.0
1989-08-24T05:12:32.820 ,0,0,0.,24.0,0.,24.0,0.,24.0,0.,24.0
1989-08-24T05:12:56.820 ,1,1,0.,24.0,0.,24.0,0.,24.0,0.,24.0
1989-08-24T05:13:20.820 ,1,0,0.,24.0,0.,24.0,0.,24.0,0.,24.0
1989-08-24T05:13:44.820 ,2,1,0.,24.0,0.,24.0,0.,24.0,0.,24.0
1989-08-24T05:14:08.820 ,2,0,0.,24.0,0.,24.0,0.,24.0,0.,24.0
1989-08-24T05:14:32.820 ,3,1,0.,24.0,0.,24.0,0.,24.0,0.,24.0
1989-08-24T05:14:56.820 ,3,0,0.,24.0,0.,24.0,0.,24.0,0.,24.0
1989-08-24T05:15:20.820 ,4,1,0.,24.0,0.,24.0,0.,24.0,0.,24.0
1989-08-24T05:15:44.820 ,4,0,0.,24.0,0.,24.0,0.,24.0,0.,24.0
1989-08-24T05:16:08.820 ,5,1,0.,24.0,0.,24.0,0.,24.0,0.,24.0
1989-08-24T05:16:32.820 ,5,0,0.,24.0,0.,24.0,0.,24.0,0.,24.0
1989-08-24T05:16:56.820 ,6,1,0.,24.0,0.,24.0,0.,24.0,0.,24.0
1989-08-24T05:17:20.820 ,6,0,0.,24.0,0.,24.0,0.,24.0,0.,24.0
1989-08-24T05:17:44.820 ,7,1,0.,24.0,0.,24.0,0.,24.0,0.,24.0
1989-08-24T05:18:08.820 ,7,0,0.,24.0,0.,24.0,0.,24.0,0.,24.0
1989-08-24T05:18:32.820 ,7,1,0.,24.0,0.,24.0,0.,24.0,0.,24.0
1989-08-24T05:18:56.820 ,7,0,0.,24.0,0.,24.0,0.,24.0,0.,24.0
1989-08-24T05:19:20.820 ,6,1,0.,24.0,0.,24.0,0.,24.0,0.,24.0
1989-08-24T05:19:44.820 ,6,0,0.,24.0,0.,24.0,0.,24.0,0.,24.0
1989-08-24T05:20:08.820 ,5,1,0.,24.0,0.,24.0,0.,24.0,0.,24.0
1989-08-24T05:20:32.820 ,5,0,0.,24.0,0.,24.0,0.,24.0,0.,24.0
1989-08-24T05:20:56.820 ,4,1,0.,24.0,0.,24.0,0.,24.0,0.,24.0
1989-08-24T05:21:20.820 ,4,0,0.,24.0,0.,24.0,0.,24.0,0.,24.0
1989-08-24T05:21:44.820 ,3,1,0.,24.0,0.,24.0,0.,24.0,0.,24.0
1989-08-24T05:22:08.820 ,3,0,0.,24.0,0.,24.0,0.,24.0,0.,24.0
1989-08-24T05:22:32.820 ,2,1,0.,24.0,0.,24.0,0.,24.0,0.,24.0
1989-08-24T05:22:56.820 ,2,0,0.,24.0,0.,24.0,0.,24.0,0.,24.0
1989-08-24T05:23:20.820 ,1,1,0.,24.0,0.,24.0,0.,24.0,0.,24.0
1989-08-24T05:23:44.820 ,1,0,0.,24.0,0.,24.0,0.,24.0,0.,24.0
1989-08-24T05:24:08.820 ,0,1,0.,24.0,0.,24.0,0.,24.0,0.,24.0
1989-08-24T05:24:32.820 ,0,0,0.,24.0,0.,24.0,0.,24.0,0.,24.0
1989-08-24T05:24:56.820 ,0,1,0.,24.0,0.,24.0,0.,24.0,0.,24.0
1989-08-24T05:25:20.820 ,0,0,0.,24.0,0.,24.0,0.,24.0,0.,24.0
1989-08-24T05:25:44.820 ,1,1,0.,24.0,0.,24.0,0.,24.0,0.,24.0
1989-08-24T05:26:08.820 ,1,0,0.,24.0,0.,24.0,0.,24.0,0.,24.0
1989-08-24T05:26:32.820 ,2,1,0.,24.0,0.,24.0,0.,24.0,0.,24.0
1989-08-24T05:26:56.820 ,2,0,0.,24.0,0.,24.0,0.,24.0,0.,24.0
1989-08-24T05:27:20.820 ,3,1,0.,24.0,0.,24.0,0.,24.0,0.,24.0
1989-08-24T05:27:44.820 ,3,0,0.,24.0,0.,24.0,0.,24.0,0.,24.0
1989-08-24T05:28:08.820 ,4,1,0.,24.0,0.,24.0,0.,24.0,0.,24.0
1989-08-24T05:28:32.820 ,4,0,0.,24.0,0.,24.0,0.,24.0,0.,24.0
1989-08-24T05:28:56.820 ,5,1,0.,24.0,0.,24.0,0.,24.0,0.,24.0
1989-08-24T05:29:20.820 ,5,0,0.,24.0,0.,24.0,0.,24.0,0.,24.0
1989-08-24T05:29:44.820 ,6,1,0.,24.0,0.,24.0,0.,24.0,0.,24.0
1989-08-24T05:30:08.820 ,6,0,0.,24.0,0.,24.0,0.,24.0,0.,24.0
1989-08-24T05:30:32.820 ,7,1,0.,24.0,0.,24.0,0.,24.0,0.,24.0
1989-08-24T05:30:56.820 ,7,0,0.,24.0,0.,24.0,0.,24.0,0.,24.0
1989-08-24T05:31:20.820 ,7,1,0.,24.0,0.,24.0,0.,24.0,0.,24.0
1989-08-24T05:31:44.820 ,7,0,0.,24.0,0.,24.0,0.,24.0,0.,24.0
1989-08-24T05:32:08.820 ,6,1,0.,24.0,0.,24.0,0.,24.0,0.,24.0
1989-08-24T05:32:32.820 ,6,0,0.,24.0,0.,24.0,0.,24.0,0.,24.0